Location: Aiyede
(8.4833°N, 4.4500°E)
Time: 09:37:42
(UTC+00:00)

Okean 2 Rocket - Pass Details

Date: 24 September 2020
Orbit: 616 x 642 km, 82.5° (Epoch: 21 October)

Event Time Altitude Azimuth Distance (km) Brightness Sun altitude
Rises 18:16:50 0° 190° (S) 2,940 6.7 -10.7°
Reaches altitude 10° 18:19:05 10° 193° (SSW) 2,029 5.9 -11.3°
Maximum altitude 18:23:33 64° 274° (W) 710 3.6 -12.4°
Drops below altitude 10° 18:27:59 10° 356° (N) 2,017 5.8 -13.5°
Sets 18:30:14 0° 359° (N) 2,921 6.6 -14.0°
